Wind_Speed
22 21 20 19 18 18 17 16 15 14 13 12 10 9 9 8 7 7 6 5 5 4 4 4 4 5 6 7 9 10 11 12 12 13 14 15 15 16 17 18 19 20
23 22 22 20 20 19 18 17 16 15 13 12 10 9 9 8 7 7 7 6 6 6 6 6 6 7 7 8 10 11 12 13 14 15 15 16 17 17 18 18 20 21
25 24 23 22 21 20 19 17 16 14 13 12 11 10 9 9 8 8 8 8 8 8 8 8 8 8 9 9 11 12 13 14 15 16 17 17 18 19 20 20 21 21
26 25 23 22 21 20 19 17 16 15 14 13 12 12 10 10 9 9 9 10 10 10 10 9 9 9 10 10 11 12 13 15 16 17 18 19 19 20 21 22 22 23
26 25 24 22 21 20 18 17 16 16 15 14 13 12 12 11 11 11 11 12 12 12 11 10 10 11 11 11 12 12 14 15 17 18 19 20 21 22 23 24 24 25
27 26 24 24 23 21 20 19 18 17 16 15 15 14 14 14 14 14 14 14 14 14 13 12 12 12 13 13 13 13 14 16 18 20 21 22 23 24 25 26 27 27
28 27 26 26 25 24 23 22 21 19 18 18 17 17 17 17 17 17 16 16 16 16 15 15 15 15 15 15 15 15 16 17 19 21 23 24 25 26 27 28 28 29
30 30 30 29 27 25 24 23 22 21 21 20 20 20 21 20 20 19 18 18 18 17 17 17 17 17 17 17 17 18 18 19 21 23 25 26 27 28 29 30 30 31
34 33 31 29 28 26 24 23 23 22 22 22 22 23 23 22 22 21 20 20 19 19 19 19 19 19 19 19 19 20 22 23 24 25 27 28 30 31 32 33 33 34
36 34 32 30 28 26 25 25 24 23 23 23 24 24 24 23 23 23 22 22 21 21 21 21 21 21 21 22 22 23 24 26 27 28 29 30 32 33 34 35 36 36
37 35 33 31 30 28 27 26 25 25 24 24 25 25 24 24 24 25 24 24 23 23 23 24 24 23 24 24 25 26 27 29 30 31 32 33 34 35 36 37 37 38
39 37 35 33 32 30 29 28 27 26 26 26 26 26 25 25 26 26 26 26 25 25 24 25 26 26 27 27 28 29 30 31 33 34 35 36 37 37 38 38 39 40
40 38 37 35 33 32 31 30 29 28 28 28 28 28 28 27 27 27 27 27 27 27 27 27 28 29 30 30 30 31 32 33 35 37 38 39 39 39 39 40 41 43
41 39 38 37 35 34 33 32 31 30 30 30 30 30 31 31 30 29 28 28 29 29 30 30 31 32 31 32 32 33 34 36 37 39 40 41 41 41 41 42 44 46
41 40 39 38 37 36 35 34 33 32 32 32 32 33 34 34 33 32 31 31 31 32 33 33 33 33 33 33 34 36 37 38 40 41 41 42 42 43 44 45 46 48
42 40 39 39 38 38 37 36 35 35 35 35 35 35 35 35 34 33 33 33 34 34 35 35 35 34 35 35 36 38 39 40 41 42 42 43 44 45 46 48 49 51
43 41 39 39 39 39 38 37 37 37 37 37 37 37 37 36 35 35 35 36 36 36 36 35 35 36 36 37 38 39 40 42 42 43 44 45 46 47 49 50 52 54
44 42 41 40 40 40 39 39 38 39 39 39 39 38 38 38 37 37 37 38 38 37 37 36 37 37 38 38 39 40 41 42 43 44 45 47 48 50 51 52 53 54
44 44 43 42 42 41 41 40 41 41 41 40 40 40 40 39 39 39 39 39 38 37 37 37 38 38 38 39 39 40 41 43 45 46 48 49 50 52 53 53 52 50
44 44 44 44 43 42 42 42 43 43 42 41 41 41 40 40 39 39 39 39 38 38 38 38 39 39 39 39 40 40 42 44 47 49 50 51 52 52 51 49 46 44
44 44 44 43 43 43 43 44 44 43 42 41 41 41 40 40 39 39 39 38 38 39 40 39 39 39 40 40 41 42 44 46 49 51 52 52 51 49 46 43 41 40
44 44 43 43 43 43 44 44 43 42 42 41 41 41 40 40 40 39 39 39 39 40 40 40 40 40 41 42 43 44 46 48 50 51 51 49 47 44 41 40 39 38
45 44 43 43 43 43 44 44 43 42 41 41 41 41 41 40 39 39 39 39 39 40 40 41 41 42 43 44 45 47 48 49 48 47 46 43 41 39 38 39 38 38
45 44 43 42 42 43 43 43 42 42 41 40 41 41 41 40 39 39 39 40 40 41 42 43 44 45 47 48 49 49 49 47 45 42 39 37 35 35 37 38 39 39
44 44 42 42 43 43 43 43 42 41 41 40 40 40 40 39 39 39 40 41 42 43 45 46 46 48 49 49 49 48 46 43 39 37 35 33 33 35 37 39 40 40
43 43 43 43 43 44 43 42 42 41 40 40 40 40 40 41 41 42 42 43 45 46 47 48 49 49 49 48 45 43 40 37 35 35 34 34 34 36 37 39 40 41
Wind_Direction
193 190 189 187 185 185 185 185 186 186 186 185 184 184 184 183 181 182 189 197 210 229 248 273 297 311 320 326 329 331 332 331 331 330 329 330 333 335 337 338 339 340
193 191 189 187 186 186 187 187 187 187 187 187 189 194 197 196 196 202 213 225 239 252 262 273 286 295 305 316 321 322 323 323 325 326 326 327 328 329 331 331 332 332
194 193 191 189 189 190 191 192 192 193 194 194 199 207 213 217 220 225 233 243 251 259 267 274 282 292 301 309 314 316 317 319 321 324 326 327 327 327 326 326 326 326
195 194 193 193 194 195 196 198 199 201 202 203 208 215 223 232 238 246 252 257 260 262 266 271 278 287 295 302 308 312 314 317 320 322 324 324 325 325 323 322 322 322
197 196 196 197 199 201 201 204 207 210 212 214 219 225 232 240 246 252 258 262 264 264 264 268 275 282 290 297 304 310 313 317 320 321 322 322 323 323 321 320 320 320
198 199 200 201 203 205 206 209 214 217 221 225 229 233 239 244 248 253 258 264 266 266 266 267 272 280 288 296 302 308 312 316 318 319 320 320 321 321 321 321 320 320
201 202 204 206 208 209 210 214 219 223 228 232 236 239 243 246 249 254 258 262 264 264 267 272 276 282 288 295 300 305 309 314 317 318 318 319 320 320 320 320 320 320
204 206 209 211 213 215 217 220 225 230 234 238 242 244 246 248 251 255 259 263 263 262 265 271 278 284 289 294 299 304 309 312 314 316 317 318 319 319 319 319 319 319
207 210 213 215 218 221 225 229 233 237 241 244 246 248 250 252 254 257 261 265 265 265 267 271 277 283 289 294 299 304 308 310 312 313 315 317 318 318 318 317 317 317
211 212 216 219 223 226 230 234 237 240 244 247 249 252 255 256 259 260 262 265 266 268 272 276 280 284 288 293 297 302 304 307 309 311 313 315 316 317 316 315 315 316
215 215 217 221 225 229 232 234 236 239 242 245 249 253 256 258 260 260 262 264 265 266 271 277 281 284 288 291 295 299 301 304 306 308 311 313 314 314 314 313 314 315
218 218 220 223 226 229 231 232 234 237 241 245 249 253 256 258 260 261 262 264 265 266 269 274 279 283 286 288 292 296 299 302 304 307 309 310 312 312 312 312 313 314
223 223 223 225 227 229 230 231 234 237 242 246 250 254 257 259 262 264 264 265 266 267 269 272 276 279 282 286 290 294 298 300 302 304 306 308 309 310 311 311 312 313
226 226 226 227 228 229 230 231 234 238 243 247 251 255 257 260 262 265 267 267 267 268 268 270 272 275 279 285 290 294 296 298 300 302 305 306 308 309 310 311 311 311
227 228 228 228 229 229 231 232 236 239 244 248 252 255 258 260 262 265 267 268 268 267 267 269 272 276 281 286 289 292 294 297 300 302 304 305 307 309 310 310 310 310
228 229 229 229 229 231 232 234 238 242 246 250 253 256 259 262 264 265 267 268 268 268 269 271 274 279 282 285 288 292 295 298 300 301 303 305 307 308 308 309 308 308
228 230 230 230 231 233 234 237 241 245 250 253 256 258 261 263 265 266 267 269 270 271 273 275 277 280 282 285 289 293 296 298 299 301 303 305 305 306 306 306 306 306
230 230 231 232 234 236 238 241 245 249 252 256 258 260 262 264 266 268 270 271 272 274 276 277 278 281 284 287 291 294 296 298 299 301 303 303 303 304 304 305 305 305
232 233 234 235 237 240 243 246 248 251 254 257 259 261 263 266 268 270 271 272 273 275 276 278 279 282 286 289 292 294 296 298 299 300 300 301 301 302 303 303 303 303
234 235 236 238 240 243 246 248 250 253 255 257 260 263 266 268 269 269 270 272 274 275 277 279 282 284 287 289 291 294 295 296 297 298 298 299 300 300 301 302 302 303
235 237 238 240 242 244 246 249 251 254 257 259 262 265 266 267 268 270 272 273 275 276 278 280 283 285 287 289 291 293 294 294 295 296 296 297 298 299 300 300 300 302
236 238 240 241 243 245 247 250 252 255 258 261 262 264 265 266 269 271 272 274 275 277 279 281 283 284 286 288 289 291 292 293 294 295 296 297 298 300 300 300 301 303
238 239 241 243 245 247 249 251 254 256 258 260 262 264 265 267 269 270 271 272 274 277 279 281 283 284 286 287 288 289 290 291 292 293 295 297 299 301 301 301 302 305
240 241 242 244 246 248 250 252 255 257 259 261 262 264 266 267 268 269 270 273 275 277 279 280 282 284 286 287 288 288 289 290 290 291 292 294 296 297 298 299 302 305
241 242 242 243 245 248 251 253 256 258 260 260 262 263 266 267 268 270 271 273 275 277 278 280 282 284 285 286 287 288 289 290 290 289 289 290 292 293 295 299 302 306
243 243 243 243 245 248 251 253 255 256 258 259 261 263 265 267 269 270 271 272 274 276 278 280 282 283 283 284 285 287 289 289 290 289 290 291 292 294 296 299 302 306
Height
11003 11005 11006 11008 11009 11011 11012 11014 11015 11017 11018 11019 11020 11021 11022 11022 11023 11023 11023 11023 11023 11023 11023 11023 11023 11022 11022 11022 11021 11020 11020 11019 11018 11017 11016 11015 11014 11013 11012 11011 11009 11008
11001 11003 11004 11006 11008 11009 11011 11012 11014 11016 11017 11018 11019 11020 11021 11021 11022 11022 11022 11022 11022 11022 11022 11022 11022 11021 11021 11021 11020 11019 11019 11018 11017 11016 11015 11014 11013 11012 11011 11010 11009 11007
10999 11000 11002 11004 11006 11008 11009 11011 11013 11015 11016 11018 11018 11019 11020 11020 11020 11021 11021 11021 11021 11021 11020 11021 11021 11020 11020 11020 11019 11019 11018 11017 11016 11015 11014 11013 11012 11011 11010 11009 11008 11007
10997 10999 11001 11003 11004 11006 11008 11010 11012 11013 11015 11016 11017 11018 11018 11019 11019 11019 11019 11019 11019 11019 11019 11019 11019 11019 11019 11019 11018 11018 11017 11016 11015 11014 11013 11012 11011 11010 11009 11008 11007 11006
10996 10998 10999 11001 11003 11005 11007 11009 11010 11011 11013 11014 11015 11016 11017 11017 11017 11017 11017 11017 11017 11017 11017 11017 11018 11017 11017 11017 11017 11017 11016 11015 11014 11013 11012 11011 11010 11009 11008 11006 11005 11004
10994 10996 10997 10999 11001 11003 11005 11006 11008 11009 11010 11012 11013 11014 11015 11015 11015 11015 11015 11015 11015 11015 11016 11016 11016 11016 11016 11015 11015 11015 11015 11014 11013 11012 11010 11009 11008 11007 11006 11005 11004 11003
10992 10994 10995 10997 10998 11000 11002 11004 11005 11007 11008 11010 11011 11012 11012 11013 11013 11013 11013 11014 11014 11014 11014 11014 11014 11014 11014 11014 11013 11013 11013 11012 11011 11010 11009 11008 11007 11005 11004 11003 11002 11001
10989 10990 10991 10993 10995 10998 11000 11002 11004 11005 11007 11008 11009 11010 11010 11010 11011 11011 11012 11012 11012 11012 11012 11012 11011 11011 11011 11011 11011 11011 11010 11010 11009 11008 11007 11005 11004 11003 11002 11001 11000 10998
10986 10987 10989 10991 10993 10996 10998 11000 11002 11003 11004 11006 11006 11007 11008 11008 11009 11009 11010 11010 11009 11009 11009 11009 11010 11009 11009 11009 11009 11008 11008 11007 11006 11006 11005 11003 11002 11001 10999 10998 10996 10995
10983 10985 10987 10989 10991 10994 10996 10998 10999 11001 11002 11003 11004 11005 11005 11006 11007 11007 11007 11008 11008 11007 11007 11007 11007 11007 11007 11007 11007 11006 11005 11004 11003 11003 11002 11001 10999 10998 10996 10995 10993 10992
10980 10982 10984 10986 10989 10991 10993 10995 10996 10998 10999 11000 11001 11002 11003 11003 11004 11004 11005 11005 11006 11006 11006 11005 11005 11005 11005 11005 11004 11004 11002 11001 11000 11000 10999 10998 10996 10995 10993 10992 10990 10989
10977 10979 10982 10984 10986 10988 10990 10991 10993 10995 10996 10997 10998 10999 11000 11000 11001 11002 11003 11003 11003 11004 11004 11004 11003 11003 11003 11002 11001 11001 11000 10999 10997 10996 10996 10995 10993 10992 10990 10988 10987 10985
10975 10977 10979 10981 10983 10985 10987 10988 10990 10992 10993 10994 10995 10996 10996 10997 10998 10999 11000 11001 11001 11001 11001 11002 11001 11000 10999 10999 10998 10998 10997 10996 10995 10993 10992 10990 10989 10988 10986 10985 10983 10981
10972 10974 10976 10978 10980 10982 10983 10985 10987 10989 10990 10991 10992 10992 10993 10994 10995 10996 10997 10998 10998 10998 10998 10998 10998 10997 10997 10996 10995 10994 10994 10993 10991 10990 10988 10986 10985 10984 10983 10981 10979 10977
10969 10971 10973 10975 10977 10978 10980 10982 10984 10986 10987 10987 10989 10989 10990 10991 10992 10993 10994 10995 10995 10995 10994 10994 10994 10994 10994 10993 10992 10991 10990 10989 10988 10986 10984 10983 10981 10980 10978 10977 10975 10972
10965 10967 10970 10972 10973 10975 10977 10979 10981 10982 10983 10984 10985 10986 10987 10988 10989 10990 10991 10991 10991 10991 10991 10991 10991 10991 10991 10990 10989 10988 10986 10985 10983 10982 10980 10979 10977 10976 10974 10972 10970 10968
10961 10964 10966 10968 10970 10971 10974 10976 10977 10979 10979 10980 10982 10983 10984 10985 10986 10987 10987 10987 10987 10987 10988 10988 10988 10987 10987 10986 10986 10985 10983 10981 10979 10978 10976 10975 10973 10972 10970 10968 10966 10963
10958 10961 10963 10965 10967 10968 10970 10973 10974 10975 10976 10977 10979 10980 10981 10981 10982 10983 10983 10983 10983 10983 10984 10984 10984 10983 10983 10983 10982 10981 10979 10976 10974 10973 10972 10971 10969 10967 10965 10964 10961 10958
10955 10957 10959 10962 10964 10966 10968 10969 10970 10971 10972 10974 10975 10976 10977 10978 10979 10979 10979 10979 10979 10979 10979 10979 10979 10979 10979 10979 10978 10977 10975 10972 10970 10969 10968 10966 10965 10963 10961 10958 10956 10953
10951 10953 10956 10959 10961 10963 10965 10965 10966 10967 10969 10971 10972 10972 10973 10974 10974 10974 10974 10975 10975 10975 10975 10975 10975 10975 10975 10975 10974 10973 10971 10968 10966 10964 10962 10961 10960 10958 10956 10954 10951 10948
10947 10949 10952 10955 10957 10959 10960 10961 10962 10964 10966 10967 10968 10968 10969 10969 10970 10970 10970 10971 10971 10970 10970 10971 10971 10971 10970 10970 10970 10969 10967 10965 10962 10959 10957 10956 10955 10953 10951 10949 10947 10945
10943 10946 10948 10951 10953 10955 10956 10957 10958 10960 10962 10963 10964 10964 10964 10965 10966 10966 10966 10966 10966 10966 10965 10966 10966 10966 10966 10966 10965 10964 10963 10960 10958 10955 10952 10951 10950 10948 10945 10943 10942 10941
10939 10942 10945 10947 10949 10950 10951 10952 10954 10956 10958 10959 10959 10959 10960 10961 10962 10962 10962 10962 10962 10961 10961 10961 10961 10961 10960 10960 10960 10959 10958 10957 10955 10952 10949 10947 10945 10943 10940 10938 10937 10936
10935 10938 10941 10943 10944 10944 10946 10948 10950 10952 10953 10955 10955 10955 10955 10957 10958 10958 10957 10957 10957 10957 10956 10956 10956 10955 10954 10954 10954 10953 10953 10952 10951 10949 10946 10944 10942 10940 10936 10934 10933 10932
10931 10934 10937 10939 10939 10940 10942 10944 10945 10947 10948 10950 10951 10951 10951 10952 10952 10953 10953 10952 10952 10951 10951 10950 10951 10950 10949 10948 10947 10947 10946 10946 10945 10944 10942 10941 10939 10937 10934 10931 10929 10928
10926 10929 10932 10934 10935 10936 10937 10939 10941 10942 10943 10945 10946 10946 10946 10946 10947 10947 10947 10947 10946 10946 10945 10945 10945 10944 10944 10943 10942 10942 10941 10940 10939 10937 10937 10936 10935 10933 10930 10928 10926 10925